Tracking 19846 objects as of 18-Sep-2019
HD Live streaming from Space Station
objects crossing your sky now

FENGYUN 1C DEB

Track FENGYUN 1C DEB now!
10-day predictions


NORAD ID: 32325
Int'l Code: 1999-025CXS
Perigee: 716.3 km
Apogee: 813.3 km
Inclination: 99.0 °
Period: 100.0 minutes
Semi major axis: 7135 km
RCS: 0.0111 m2 (small)
Launch date: May 10, 1999
Source: People's Republic of China (PRC)
Launch site: Taiyaun Space Center, China (TSC)

Note: This is SATELLITE DEBRIS
aabbcc
Your satellite tracking list
Your tracking list is empty




NASA's NSSDC Master Catalog

Two Line Element Set (TLE):
1 32325U 99025CXS 19260.31569757 +.00001255 +00000-0 +40132-3 0  9997
2 32325 098.9969 088.2694 0067976 299.9029 059.5417 14.40246134638006
Source of the keplerian elements: AFSPC